Location: Hobi?a Gr?di?te
(45.4833°N, 22.7833°E)
Time: 04:57:02
(UTC+00:00)

YAOGAN 3 - Pass Details

Date: 28 January 2023
Orbit: 621 x 622 km, 97.9° (Epoch: 29 March)

Event Time Altitude Azimuth Distance (km) Brightness Sun altitude
Rises 16:46:47 0° 161° (SSE) 2,891 7.9 -13.7°
Reaches altitude 10° 16:48:58 10° 160° (SSE) 1,989 7.1 -14.0°
Maximum altitude 16:53:17 76° 75° (ENE) 648 4.5 -14.8°
Drops below altitude 10° 16:57:39 10° 350° (N) 2,008 7.2 -15.5°
Sets 16:59:51 0° 349° (N) 2,920 8.0 -15.9°
